KC9NBZ Weather Reports


time (UTC)temp
C
wind
direction
speed
KPH
gust
KPH
rain 1hr
cm
rain 24hr
cm
rain mn
cm
humidity
%
barometer
mb
20260504000540 20 276 8.0 14.5 0.00 0.00 0.00 44 1003.4
20260503235540 20 279 6.4 9.7 0.00 0.00 0.00 43 1003.4
20260503234541 20 287 6.4 11.3 0.00 0.00 0.00 43 1003.3
20260503233521 21 273 8.0 14.5 0.00 0.00 0.00 42 1003.3
20260503232520 20 288 6.4 17.7 0.00 0.00 0.00 42 1003.4
20260503231542 20 280 9.7 16.1 0.00 0.00 0.00 42 1003.4
20260503230521 20 290 8.0 14.5 0.00 0.00 0.00 41 1003.5
20260503225522 20 282 9.7 17.7 0.00 0.00 0.00 43 1003.6
20260503224521 20 292 8.0 14.5 0.00 0.00 0.00 44 1003.7
20260503223641 20 279 9.7 19.3 0.00 0.00 0.00 44 1003.8
20260503222518 20 294 8.0 19.3 0.00 0.00 0.00 44 1003.8
20260503221518 20 284 8.0 16.1 0.00 0.00 0.00 44 1003.8
20260503220518 20 279 9.7 19.3 0.00 0.00 0.00 44 1003.8
20260503215521 20 264 12.9 24.1 0.00 0.00 0.00 44 1003.8
20260503214542 20 274 11.3 19.3 0.00 0.00 0.00 45 1003.8
20260503213519 19 280 11.3 19.3 0.00 0.00 0.00 46 1003.9
20260503212519 19 269 11.3 19.3 0.00 0.00 0.00 46 1004.0
20260503211522 19 266 12.9 20.9 0.00 0.00 0.00 46 1004.0
20260503210601 19 275 12.9 24.1 0.00 0.00 0.00 46 1004.1
20260503205520 18 264 12.9 20.9 0.00 0.00 0.00 47 1004.2
20260503204520 18 271 11.3 27.4 0.00 0.00 0.00 48 1004.4
20260503203521 18 276 14.5 30.6 0.00 0.00 0.00 48 1004.5
20260503202522 18 271 16.1 24.1 0.00 0.00 0.00 48 1004.7
20260503201541 18 279 14.5 32.2 0.00 0.00 0.00 48 1004.8
20260503200521 18 263 16.1 25.7 0.00 0.00 0.00 48 1005.0
20260503195522 18 262 16.1 25.7 0.00 0.00 0.00 48 1005.1
20260503194518 18 273 14.5 24.1 0.00 0.00 0.00 49 1005.2
20260503193519 17 266 14.5 22.5 0.00 0.00 0.00 49 1005.4
20260503192522 17 257 16.1 27.4 0.00 0.00 0.00 48 1005.6
20260503191543 17 269 17.7 29.0 0.00 0.00 0.00 49 1005.7
20260503190521 17 274 19.3 33.8 0.00 0.00 0.00 49 1005.7
20260503185540 17 266 14.5 25.7 0.00 0.00 0.00 49 1005.7
20260503184519 17 260 19.3 32.2 0.00 0.00 0.00 48 1005.8
20260503183601 17 265 17.7 30.6 0.00 0.00 0.00 48 1005.9
20260503182519 16 264 19.3 41.8 0.00 0.00 0.00 50 1006.0
20260503181519 16 262 14.5 25.7 0.00 0.00 0.00 50 1006.1
20260503180601 16 261 12.9 22.5 0.00 0.00 0.00 53 1006.1
20260503175520 16 260 14.5 30.6 0.00 0.00 0.00 52 1006.3
20260503174524 16 264 16.1 27.4 0.00 0.00 0.00 53 1006.5
20260503173520 16 259 17.7 27.4 0.00 0.00 0.00 52 1006.6
20260503172521 15 263 16.1 25.7 0.00 0.00 0.00 51 1006.7
20260503171521 16 261 17.7 30.6 0.00 0.00 0.00 50 1006.9
20260503170520 16 265 12.9 24.1 0.00 0.00 0.00 53 1007.0
20260503150520 12 266 12.9 29.0 0.00 0.00 0.00 68 1008.6
20260503130539 10 274 12.9 22.5 0.00 0.00 0.00 66 1010.1
20260503110521 9 268 8.0 14.5 0.00 0.00 0.00 55 1010.1
20260503081523 8 282 6.4 12.9 0.00 0.00 0.00 54 1011.4
20260503080521 8 276 4.8 11.3 0.00 0.00 0.00 54 1011.4
20260503072519 8 273 4.8 9.7 0.00 0.00 0.00 53 1011.6
20260503071520 8 282 6.4 12.9 0.00 0.00 0.00 53 1011.6
20260503070520 8 279 6.4 11.3 0.00 0.00 0.00 52 1011.7
20260503054520 9 273 6.4 12.9 0.00 0.00 0.00 49 1012.3
20260503053521 9 272 6.4 12.9 0.00 0.00 0.00 49 1012.3
20260503052519 9 270 6.4 11.3 0.00 0.00 0.00 49 1012.4
20260503051522 9 274 6.4 9.7 0.00 0.00 0.00 49 1012.5
20260503050525 10 265 4.8 9.7 0.00 0.00 0.00 48 1012.6
20260503045521 10 272 6.4 9.7 0.00 0.00 0.00 48 1012.6
20260503044539 10 269 6.4 9.7 0.00 0.00 0.00 48 1012.7
20260503043519 10 269 6.4 9.7 0.00 0.00 0.00 48 1012.7
20260503042519 10 269 6.4 11.3 0.00 0.00 0.00 48 1012.8
20260503041522 10 268 4.8 11.3 0.00 0.00 0.00 48 1012.9
20260503040522 10 270 4.8 11.3 0.00 0.00 0.00 48 1013.0
20260503035519 10 277 4.8 8.0 0.00 0.00 0.00 48 1013.1
20260503034520 10 269 4.8 11.3 0.00 0.00 0.00 48 1013.2
20260503033541 9 276 4.8 9.7 0.00 0.00 0.00 49 1013.2
20260503032521 9 272 3.2 8.0 0.00 0.00 0.00 49 1013.3
20260503031521 9 279 4.8 8.0 0.00 0.00 0.00 49 1013.4
20260503030520 7 288 4.8 8.0 0.00 0.00 0.00 55 1013.4
20260503025522 6 304 3.2 8.0 0.00 0.00 0.00 65 1013.4
20260503024520 5 14 0.0 3.2 0.00 0.00 0.00 68 1013.4
20260503023522 6 345 0.0 1.6 0.00 0.00 0.00 67 1013.5
20260503022520 6 320 1.6 3.2 0.00 0.00 0.00 66 1013.5
20260503021521 6 313 0.0 3.2 0.00 0.00 0.00 64 1013.4
20260503020521 7 305 0.0 1.6 0.00 0.00 0.00 60 1013.4
20260503015518 7 328 0.0 1.6 0.00 0.00 0.00 59 1013.4
20260503014518 8 237 0.0 3.2 0.00 0.00 0.00 57 1013.3
20260503013522 8 313 1.6 4.8 0.00 0.00 0.00 57 1013.3
20260503012522 10 316 3.2 6.4 0.00 0.00 0.00 54 1013.3
20260503011519 10 302 3.2 4.8 0.00 0.00 0.00 51 1013.2
20260503010519 11 302 3.2 4.8 0.00 0.00 0.00 49 1013.2
20260503005519 11 290 3.2 8.0 0.00 0.00 0.00 46 1013.3
20260503004519 12 288 8.0 12.9 0.00 0.00 0.00 44 1013.3
20260503003520 12 287 6.4 14.5 0.00 0.00 0.00 44 1013.3
20260503002519 13 286 9.7 17.7 0.00 0.00 0.00 42 1013.4
20260503001522 13 278 9.7 17.7 0.00 0.00 0.00 40 1013.4